Location: ???????
(55.4362°N, 38.1183°E)
Time: 16:30:10
(UTC+00:00)

Meteor 1-11 - Pass Details

Date: 17 June 2021
Orbit: 842 x 885 km, 81.2° (Epoch: 29 July)

Event Time Altitude Azimuth Distance (km) Brightness Sun altitude
Exits shadow 22:02:05 14° 194° (SSW) 2,191 5.7 -10.8°
Maximum altitude 22:06:57 87° 282° (WNW) 855 4.2 -10.7°
Drops below altitude 10° 22:12:35 10° 14° (NNE) 2,476 8.2 -10.6°
Sets 22:15:01 0° 15° (NNE) 3,415 9.6 -10.5°
